GFSFLT1_850_temp_057.txt.gz
Temp
31 30 29 28 26 25 24 23 23 22 21 19 19 19 20 21 20 20 20 21 21 21 22 22 22 21 19 19 19 19 18 18 18
32 31 30 29 27 26 25 24 23 22 21 20 20 19 20 21 21 21 20 21 21 21 21 22 21 20 19 19 19 19 19 19 19
31 29 31 30 28 27 26 25 24 22 21 20 19 19 19 20 21 22 21 20 20 20 21 21 21 20 20 19 19 19 19 20 19
33 32 31 30 29 28 26 25 24 23 22 21 20 19 19 20 20 20 22 20 20 20 20 20 21 20 19 19 19 19 19 19 20
32 32 32 31 30 29 28 26 25 24 23 22 21 20 19 20 20 20 20 21 20 20 20 20 20 21 19 19 19 19 19 19 20
32 32 32 32 31 30 28 27 26 25 24 23 22 21 21 20 20 20 20 20 21 20 20 21 21 21 20 20 19 19 19 19 19
32 32 32 32 31 30 29 28 26 25 25 24 24 23 22 21 20 20 20 20 21 21 21 22 22 22 22 21 20 19 19 19 19
31 31 32 32 32 31 29 28 27 25 25 25 24 23 22 22 21 20 20 20 20 21 21 22 23 22 22 21 20 20 20 20 19
30 29 29 30 30 30 29 28 27 26 25 25 25 24 23 23 21 20 20 20 20 21 22 22 23 22 22 22 20 21 21 20 20
28 27 27 27 27 28 29 29 27 26 25 25 25 24 24 23 22 21 21 21 20 21 23 23 23 23 23 23 23 22 21 21 21
23 24 24 24 25 26 27 28 28 27 26 24 24 24 24 23 22 21 21 21 21 22 23 24 23 23 23 23 23 23 22 22 21
21 21 21 21 22 23 23 25 27 28 26 25 24 24 23 23 22 21 20 21 22 22 23 24 24 24 24 24 24 23 23 23 22
17 18 19 19 20 20 22 22 23 26 27 26 24 23 23 22 22 21 21 21 21 22 24 24 24 24 24 24 24 24 24 24 23
14 14 16 16 19 21 22 22 23 24 26 26 25 23 23 22 21 21 20 20 20 21 22 21 23 22 23 24 24 24 24 24 24
12 13 15 17 18 23 24 24 24 24 24 26 25 24 22 22 21 21 21 20 20 20 20 20 21 21 21 21 23 24 24 24 24
11 12 14 16 18 21 23 25 25 24 24 25 24 23 22 21 20 20 21 20 20 20 20 21 20 21 21 22 22 21 21 24 25
11 11 12 14 16 17 17 21 22 24 24 23 23 22 21 21 20 20 21 21 20 21 21 21 22 22 23 23 23 24 23 22 24
10 10 10 11 13 14 16 18 19 20 21 22 22 21 21 21 21 20 20 21 21 22 22 23 22 24 24 24 24 24 24 24 23
10 10 10 10 10 12 13 15 17 18 19 20 21 21 21 21 22 21 21 22 22 22 22 22 23 23 24 24 25 25 25 24 23
10 9 10 10 10 10 10 13 15 17 17 19 19 20 21 22 23 22 22 22 21 21 21 21 22 22 22 23 24 24 23 24 23

GFSFLT1_850_temp_060.txt.gz
Temp
28 29 29 27 26 25 24 24 23 21 20 21 20 19 21 20 20 21 21 21 22 21 22 21 21 21 21 21 20 19 19 20 20
23 26 23 28 27 25 24 24 23 22 21 21 21 21 21 21 21 22 21 21 21 22 22 22 23 21 21 20 20 19 19 19 19
27 28 24 22 28 26 25 24 24 23 22 21 21 21 20 22 22 22 22 21 21 21 22 22 21 22 21 21 20 19 19 19 19
25 26 21 21 22 27 26 25 24 23 22 21 20 20 20 20 22 22 22 21 21 21 21 21 22 20 21 20 20 19 19 20 19
28 28 24 24 21 23 27 26 25 24 23 22 21 20 19 20 20 22 22 22 21 21 21 21 21 21 20 20 20 20 19 20 20
29 25 25 24 26 25 28 27 26 25 23 22 22 20 19 19 19 19 21 22 21 21 21 21 21 21 21 21 21 20 20 20 20
33 27 25 28 27 25 29 27 26 25 25 24 23 21 20 19 19 19 20 21 23 20 20 22 21 21 21 22 21 21 21 21 20
32 32 32 32 32 31 29 28 27 26 25 25 24 23 21 20 20 19 19 20 21 22 21 21 22 22 22 21 21 22 22 21 21
23 31 31 30 30 31 29 27 28 26 26 25 25 24 23 22 21 20 20 19 20 20 21 21 22 22 22 22 21 22 21 21 21
22 25 28 27 27 28 28 26 24 27 26 25 25 25 24 23 22 21 20 20 20 20 20 20 21 23 23 22 22 22 21 21 21
21 20 24 24 24 24 24 22 21 26 26 25 25 25 24 24 23 22 21 20 20 20 20 19 20 21 23 23 23 23 22 21 21
19 18 18 21 22 22 23 24 26 26 27 26 25 25 25 24 24 23 22 21 21 20 20 20 20 21 22 23 23 23 23 23 22
15 16 16 17 18 19 20 22 25 24 25 26 25 26 25 24 24 23 22 22 22 21 20 20 20 21 22 23 24 24 24 23 22
13 13 13 13 15 17 20 21 22 22 25 25 26 25 25 24 24 23 22 22 21 21 20 20 20 20 21 21 23 24 24 24 23
11 11 12 13 14 17 19 21 22 23 23 26 26 26 24 24 24 23 22 22 21 20 20 20 20 20 20 20 21 23 23 24 24
10 11 11 12 14 17 19 20 22 23 24 24 25 25 25 24 23 23 22 21 21 20 20 20 20 20 20 20 20 21 23 23 23
10 10 11 11 13 16 17 18 19 21 23 23 24 25 24 24 23 22 22 22 21 21 20 21 20 20 21 21 21 21 21 22 23
10 10 10 10 11 13 15 15 17 20 22 23 24 24 24 23 22 22 21 21 21 21 20 21 21 21 21 22 22 22 23 23 23
9 10 10 10 11 11 12 12 15 18 20 21 22 22 22 22 22 21 21 21 21 20 21 21 21 22 22 22 23 24 24 24 24
9 10 10 10 10 10 10 11 12 16 17 20 21 21 21 21 21 21 20 20 21 21 21 21 22 22 23 23 24 24 25 24 24

GFSFLT1_850_temp_063.txt.gz
Temp
23 26 26 25 24 24 24 23 22 22 22 21 21 21 20 21 21 21 21 21 21 21 21 21 21 21 21 21 20 20 20 20 20
25 25 26 26 25 24 24 23 22 22 22 21 21 22 21 20 21 21 21 21 20 21 21 22 21 21 21 21 21 21 21 20 20
23 23 25 24 22 23 24 24 23 22 22 22 22 21 21 21 21 22 21 21 21 21 21 21 21 21 21 21 21 21 21 20 20
23 24 23 21 22 23 24 23 23 23 21 21 22 21 21 21 21 21 22 21 21 21 22 22 21 21 21 21 21 21 20 20 20
22 22 21 20 23 23 24 23 23 23 22 21 22 22 21 21 22 21 22 22 21 21 21 22 21 21 21 20 20 20 20 20 20
23 22 20 21 23 26 25 23 23 23 23 22 22 21 21 21 21 22 22 22 22 21 22 21 21 20 20 20 20 21 21 20 21
24 23 22 22 24 27 27 25 24 23 23 22 21 21 21 21 21 21 22 22 22 22 22 22 21 21 21 21 21 21 21 21 21
22 21 21 21 25 25 22 24 24 24 24 23 22 21 21 21 21 20 20 21 22 22 22 22 22 22 21 21 21 21 21 21 21
19 19 19 19 21 22 24 25 27 25 24 23 23 22 21 21 20 20 20 20 20 21 21 21 22 22 22 21 21 22 22 22 21
16 18 18 16 18 21 21 21 23 25 22 23 23 23 22 22 21 21 20 20 19 20 21 20 21 21 21 22 22 22 22 22 22
14 15 19 19 17 17 17 19 19 18 19 24 23 23 23 23 22 22 22 20 20 19 20 20 20 20 21 21 22 22 22 22 22
14 14 15 16 19 19 19 18 19 22 23 25 23 22 23 24 23 23 22 22 21 20 20 20 20 20 21 21 22 22 22 21 21
13 14 15 16 19 18 20 19 18 19 22 23 24 24 23 25 24 23 23 23 22 21 21 20 20 20 20 20 21 21 22 22 21
12 12 13 15 16 17 19 17 18 19 20 22 23 22 23 25 25 24 24 23 23 22 21 21 20 20 20 20 20 21 22 22 21
11 11 11 13 14 17 18 17 17 18 20 21 22 24 23 24 25 24 24 24 23 22 22 21 21 20 20 20 21 21 22 23 22
11 11 10 12 13 14 15 16 17 19 22 23 24 23 24 23 23 24 24 23 23 22 22 21 21 20 20 20 21 21 22 23 23
11 12 10 10 11 13 13 13 15 18 20 21 22 23 23 23 23 24 24 23 23 22 22 21 20 20 20 20 20 20 21 22 23
10 11 10 10 10 11 14 12 13 15 17 19 21 22 23 23 24 23 24 23 23 22 22 22 21 21 20 20 20 22 23 23 23
9 9 10 10 11 11 12 12 12 13 16 17 19 21 23 22 22 23 23 23 22 21 21 21 21 21 21 21 21 21 22 22 22
8 8 9 10 10 10 11 12 11 12 13 16 18 19 21 22 21 22 22 22 22 22 21 21 20 20 20 20 21 21 21 22 23

GFSFLT1_850_temp_069.txt.gz
Temp
22 21 21 22 22 22 22 23 23 22 22 22 22 21 21 21 20 20 20 20 20 20 20 20 20 19 19 19 19 19 19 19 20
20 20 21 22 22 22 23 23 23 23 23 22 22 22 21 21 21 20 20 20 20 20 20 20 20 19 19 19 19 19 19 19 19
21 20 21 22 22 22 23 23 24 23 23 23 23 22 21 22 22 21 20 20 20 20 20 20 20 20 20 20 19 19 19 19 19
21 21 21 22 22 22 23 23 23 23 23 23 22 22 22 22 22 22 21 20 20 20 20 20 20 20 20 20 20 20 19 19 19
21 22 22 22 22 22 21 20 21 22 23 23 23 22 22 22 22 22 22 21 20 20 20 20 20 20 20 20 20 20 20 19 19
19 19 19 20 20 20 19 19 19 19 20 21 23 23 22 22 22 22 22 22 22 21 20 20 20 20 20 20 20 20 20 20 19
14 16 18 18 18 18 18 19 19 18 18 19 20 21 22 22 22 22 22 22 22 22 21 20 20 20 20 20 20 20 21 20 20
13 13 15 15 16 17 18 19 20 20 20 19 19 20 21 22 22 22 22 22 22 22 22 21 21 20 20 20 20 20 21 21 21
11 12 12 14 15 16 17 18 20 20 20 20 19 19 20 21 22 22 22 22 22 22 22 22 22 21 20 20 20 20 20 20 20
10 11 13 13 14 15 15 17 17 18 20 20 20 19 19 20 20 21 22 22 22 22 22 22 21 22 22 21 21 20 20 20 20
10 11 12 13 14 14 14 16 16 18 19 20 20 20 20 21 21 20 21 21 22 22 21 21 22 21 21 22 22 22 21 20 20
9 10 11 12 13 14 15 16 16 16 17 17 17 19 19 18 19 19 20 20 21 21 21 21 21 21 21 21 21 22 22 22 21
10 10 10 11 13 13 15 16 16 16 16 17 16 17 18 17 18 18 18 19 20 20 20 21 21 21 21 21 22 21 21 21 21
9 9 10 10 12 13 13 15 16 16 16 17 17 17 18 18 18 18 18 18 20 19 20 20 21 21 22 22 22 22 22 21 20
9 10 10 10 10 12 13 13 16 16 17 17 17 16 18 18 19 19 19 21 21 21 19 19 19 21 21 22 22 22 21 21 21
8 9 10 10 10 10 11 12 15 17 15 16 18 17 17 18 19 20 21 21 22 21 19 18 18 19 21 21 22 23 22 22 21
5 8 9 9 9 10 11 11 13 15 17 15 16 16 18 18 19 20 21 22 22 22 19 19 19 19 19 19 20 23 22 22 22
5 6 8 9 8 8 9 11 12 14 15 15 14 16 17 18 20 20 19 21 23 22 22 21 21 21 20 20 22 23 23 23 23
5 6 7 8 8 8 8 9 11 12 13 14 15 15 18 17 18 20 19 19 22 22 21 22 22 21 20 20 22 22 22 21 21
5 6 6 7 8 8 8 8 9 10 11 13 15 15 15 15 16 19 18 18 18 19 20 20 20 20 21 20 21 21 21 21 20

GFSFLT1_850_temp_072.txt.gz
Temp
20 20 20 21 21 21 22 22 22 22 22 22 21 20 21 21 20 20 20 20 20 20 20 19 19 19 19 19 19 18 18 18 18
20 20 20 21 21 22 22 22 23 23 22 22 22 21 21 21 20 20 21 20 20 20 20 20 20 19 19 19 19 18 19 18 18
17 20 20 21 21 22 22 22 23 23 22 22 22 22 22 21 21 21 21 20 20 20 20 20 20 20 19 19 19 19 19 19 19
15 19 20 21 21 21 22 22 22 22 22 22 22 22 21 21 21 21 20 21 20 20 20 20 20 20 20 19 19 19 19 19 19
14 17 19 19 20 21 21 21 21 21 21 21 22 22 22 22 22 21 21 21 21 20 20 20 20 20 20 20 20 19 19 19 19
13 14 16 17 19 20 20 20 19 20 20 20 21 21 21 21 22 22 21 21 21 21 21 20 20 20 20 20 20 20 20 19 19
12 13 13 15 16 16 17 18 18 18 19 19 20 20 20 21 22 22 22 22 21 21 21 21 21 20 20 20 20 20 20 20 20
11 11 12 13 14 15 16 17 17 18 18 19 19 19 20 21 21 22 22 21 21 21 21 21 21 21 21 20 20 20 20 20 20
9 10 11 12 13 14 14 15 16 17 18 19 19 19 20 21 21 21 21 21 21 21 21 21 21 21 21 21 20 21 20 20 20
10 10 10 11 12 13 13 14 15 17 17 19 19 18 19 19 20 21 21 21 21 21 21 21 21 21 21 22 21 21 21 21 20
11 11 11 11 11 12 13 14 14 16 16 17 18 18 18 18 19 20 21 21 21 21 20 21 21 21 21 21 21 22 22 21 21
10 11 11 11 11 11 12 13 14 15 15 16 16 17 17 18 18 18 19 20 21 20 20 20 21 20 21 21 21 21 21 21 21
10 11 12 12 12 12 12 12 13 14 15 15 15 16 16 17 17 17 17 18 19 20 20 20 20 20 20 21 21 21 21 20 20
9 10 10 12 12 12 12 12 12 13 13 14 16 16 16 17 17 17 17 18 18 19 20 21 20 20 20 21 21 21 21 21 20
8 10 11 10 11 12 12 12 11 12 13 13 14 16 16 16 16 17 17 17 17 18 19 20 20 21 21 21 22 22 22 21 21
8 6 9 10 8 10 12 12 10 11 12 13 13 14 16 17 17 18 17 17 18 19 20 19 20 20 22 22 22 23 22 22 21
5 5 5 8 9 8 10 12 11 10 10 11 13 14 15 16 18 18 18 19 18 19 19 20 20 20 20 22 21 23 23 23 22
3 3 4 5 6 8 8 8 10 10 9 10 11 12 14 14 16 17 17 18 19 19 20 18 19 20 20 22 22 23 22 22 22
4 4 4 4 5 6 8 7 7 8 8 9 10 11 12 13 15 15 18 17 20 20 19 20 20 19 18 22 23 21 20 19 21
4 4 4 5 5 6 7 7 7 7 7 9 10 10 10 11 14 12 14 15 17 19 21 19 20 19 20 22 23 20 20 19 18

GFSFLT1_850_temp_075.txt.gz
Temp
22 21 21 21 21 20 21 22 22 22 22 22 21 20 21 20 20 19 19 20 20 20 20 20 19 19 19 18 19 19 18 18 18
17 21 22 21 21 20 21 22 22 22 22 22 22 21 21 21 20 19 20 19 20 20 20 20 20 19 19 19 19 19 19 19 18
15 17 19 21 21 20 20 22 22 22 22 23 23 22 21 21 21 20 20 20 20 20 20 20 20 19 19 19 19 19 19 19 19
14 17 19 20 20 20 20 21 21 22 22 22 22 22 22 21 21 21 20 20 20 20 20 20 20 20 20 20 19 19 19 19 19
13 14 15 16 18 19 20 20 20 21 22 22 22 22 21 22 21 21 21 20 20 20 20 20 20 20 20 20 20 19 19 19 19
12 12 13 14 15 16 16 17 19 19 21 20 19 21 21 21 21 21 21 21 21 21 21 20 20 20 20 20 20 20 20 20 19
11 11 12 13 14 15 15 16 17 17 18 18 19 18 19 20 21 21 21 21 21 21 21 21 20 20 20 20 20 20 20 20 20
11 11 11 11 13 13 14 15 16 17 17 18 18 19 19 20 21 21 21 21 21 21 21 21 21 20 20 20 20 20 20 20 20
11 11 10 10 11 13 13 14 14 15 17 17 18 18 19 19 20 20 20 21 21 21 21 21 21 20 20 21 21 20 21 21 21
10 10 9 10 11 11 12 13 13 14 15 17 17 18 18 18 18 19 20 20 20 21 22 22 21 21 21 20 21 21 21 21 21
9 9 9 11 12 12 12 12 13 14 14 16 16 17 18 18 18 18 18 19 19 20 21 21 22 21 21 21 21 21 21 21 21
8 8 8 9 10 12 13 12 13 13 14 14 15 15 15 17 17 17 18 18 18 19 19 20 21 21 21 21 21 21 21 21 20
9 10 10 11 11 11 12 13 13 13 13 13 14 14 15 15 16 17 17 17 19 18 18 19 19 20 21 21 21 21 21 21 20
6 7 10 11 11 11 11 12 12 13 12 12 13 14 14 14 15 16 17 16 17 17 17 17 18 20 21 21 21 21 21 21 20
6 5 6 8 9 12 11 11 11 11 12 12 13 13 14 14 14 15 16 16 17 17 17 17 18 18 20 21 21 22 21 21 21
5 5 5 4 5 8 11 11 10 10 9 11 12 13 13 14 15 15 16 16 16 17 16 17 17 17 20 21 21 21 22 22 21
4 4 4 4 4 4 7 9 10 10 8 8 11 11 12 13 14 15 15 16 16 17 17 18 18 18 17 18 18 19 19 21 22
3 3 4 4 4 4 4 5 8 9 9 7 8 9 10 11 12 13 14 15 15 17 18 17 17 18 17 18 18 19 20 20 20
3 3 4 4 3 4 4 5 5 5 7 7 7 7 7 9 10 11 12 13 15 16 18 19 18 19 19 20 18 18 19 20 20
3 3 2 3 3 3 3 4 5 6 6 7 7 7 7 7 9 9 10 11 12 15 18 19 18 19 19 19 20 19 20 21 21